Location: Gollag?dem
(16.8053°N, 80.8024°E)
Time: 09:29:59
(UTC+00:00)

Aureole 1 Rocket - Pass Details

Date: 13 August 2020
Orbit: 378 x 1379 km, 73.9° (Epoch: 19 September)

Event Time Altitude Azimuth Distance (km) Brightness Sun altitude
Rises 13:58:16 0° 182° (S) 3,217 6.5 -13.4°
Reaches altitude 10° 14:00:25 10° 178° (S) 2,428 5.9 -13.9°
Maximum altitude 14:06:00 59° 100° (E) 1,137 4.0 -15.2°
Drops below altitude 10° 14:13:12 10° 22° (NNE) 3,116 6.6 -16.8°
Sets 14:16:15 0° 19° (NNE) 4,200 7.3 -17.5°
